Domov               UVHVVR             MKGP            O straneh              
ZDRAVSTVENO VARSTVO RASTLIN
  MREŽA AGROMET. POSTAJ
 ► PROGNOSTIČNA OBVESTILA
AGROMETEOROLOŠKI PODATKI -
ARSO
OBVLADOVANJE TVEGANJ ZARADI
NEUGODNIH VREMENSKIH RAZMER
  ► NARAVNE NESREČE
  ► SUŠA/MOČA
  ► NAMAKANJE
  ► ŽLED (gozdarstvo)
KARTOGRAFSKI PRIKAZI
SPLETNE POVEZAVE
PROJEKTI IN PUBLIKACIJE

AGROMETEOROLOŠKA MREŽA: VREMENSKE POSTAJE IN FENOLOŠKA OPAZOVANJA

Pregled podatkov za lokacijo Meranovo, meteorološka postaja 61680

Pregled senzorjev na lokaciji

ID Ime Zadnja
vrednost
Datum
zadnje
spremembe
Tip
senzorja
4202 Omočenost lista (U) 0 U 21.5.2018 12:00 A730WET
4203 Padavine (mm) 0 mm 21.5.2018 12:00 Generic 0.2 mm
4201 Relativna vlaga 2 m (% RH) 61,79 % RH 21.5.2018 12:00 Generic 0 - 100 %
4200 Temperatura 2 m (°C) 18,27 °C 21.5.2018 12:00 Generic -40 - +60 °C

Pregled podatkov zadnjih 24 ur

Zap.
št.
Datum in čas Meranovo
Omočenost
lista
Padavine Relativna
vlaga
2
m
Temperatura
2
m
1 21.5.2018 12:30
2 21.5.2018 12:00
3 21.5.2018 11:30
4 21.5.2018 11:00 0 0 61,8 18,3
5 21.5.2018 10:30 0 0 63,6 17,6
6 21.5.2018 10:00 0 0 68,8 16,4
7 21.5.2018 09:30 0 0 72,2 15,5
8 21.5.2018 09:00 0 0 71 15,6
9 21.5.2018 08:30 0 0 71,9 15,4
10 21.5.2018 08:00 0 0 69,5 15,8
11 21.5.2018 07:30 0 0 71 15
12 21.5.2018 07:00 0 0 72,1 14,8
13 21.5.2018 06:30 0 0 74,9 13,9
14 21.5.2018 06:00 0 0 79,1 12,7
15 21.5.2018 05:30 0 0 80,2 12,1
16 21.5.2018 05:00 1 0 82,2 11,7
17 21.5.2018 04:30 1 0 82,1 11,8
18 21.5.2018 04:00 1 0 84,1 11,8
19 21.5.2018 03:30 1 0 83,8 12
20 21.5.2018 03:00 1 0 82,1 12,1
21 21.5.2018 02:30 1 0 84,3 12,2
22 21.5.2018 02:00 3 0 85,2 12,3
23 21.5.2018 01:30 1 0 81,6 12,8
24 21.5.2018 01:00 1 0 81,2 12,9
25 21.5.2018 00:30 0 0 79,3 13,3
26 21.5.2018 00:00 0 0 77,9 13,5
27 20.5.2018 23:30 0 0 76,8 13,6
28 20.5.2018 23:00 0 0 78,3 13,5
29 20.5.2018 22:30 0 0 79,6 13,4
30 20.5.2018 22:00 0 0 77,1 13,8
31 20.5.2018 21:30 0 0 75,2 14,2
32 20.5.2018 21:00 0 0 74 14,5
33 20.5.2018 20:30 0 0 74,4 14,5
34 20.5.2018 20:00 0 0 71,8 15
35 20.5.2018 19:30 0 0 68,5 15,6
36 20.5.2018 19:00 0 0 67,9 15,9
37 20.5.2018 18:30 0 0 64 16,9
38 20.5.2018 18:00 0 0 66,1 17,1
39 20.5.2018 17:30 0 0 68,7 16,3
40 20.5.2018 17:00 0 0 65,8 17,2
41 20.5.2018 16:30 0 0 65,4 17,4
42 20.5.2018 16:00 0 0 64,4 16,8
43 20.5.2018 15:30 0 0 61,3 18
44 20.5.2018 15:00 0 0 56,4 19,3
45 20.5.2018 14:30 0 0 59 19,1
46 20.5.2018 14:00 0 0 60 18,8
47 20.5.2018 13:30 0 0 59,8 18,3
48 20.5.2018 13:00 0 0 65,1 17,9
© 2011 Ministrstvo za kmetijstvo, gozdarstvo in prehrano. Vse pravice pridržane.